Renton, WA

12:52 AM PDT on May 30, 2017 (GMT -0700)
Renton Municipal

Weather History for KRNT - April, 2014

Change the Weather History Date:

Saturday, April 26, 2014

  Actual Average Record
Temperature  
Mean Temperature 52 °F -  
Max Temperature 61 °F 60 °F 79 °F (2004)
Min Temperature 44 °F 43 °F 35 °F (2008)
Degree Days  
Heating Degree Days 13    
Growing Degree Days 2 (Base 50)    
Moisture  
Dew Point 39 °F    
Average Humidity 69    
Maximum Humidity 93    
Minimum Humidity 32    
Precipitation  
Precipitation 0.15 in - - ()
Sea Level Pressure  
Sea Level Pressure 29.80 in    
Wind  
Wind Speed 5 mph (SSE)    
Max Wind Speed 12 mph    
Max Gust Speed 18 mph    
Visibility 10 miles    
Events Rain    
Averages and records for this station are not official NWS values.
T = Trace of Precipitation, MM = Missing Value Source: NWS Daily Summary

Daily Weather History Graph

Daily Weather History Graph

Search for Another Location

Airport or City:

Trip Planner

Search our weather history database for the weather conditions in past years. The results will help you decide how hot, cold, wet, or windy it might be!

Date:

Astronomy

Apr. 26, 2014 Rise Set
Actual Time 6:00 AM PDT 8:13 PM PDT
Civil Twilight 5:26 AM PDT 8:47 PM PDT
Nautical Twilight 4:44 AM PDT 9:29 PM PDT
Astronomical Twilight 3:57 AM PDT 10:17 PM PDT
Moon 4:40 AM PDT (4/26) 5:38 PM PDT (4/26)
Length of Visible Light 15h 21m
Length of Day
14h 13m
Waning Crescent, 7% of the Moon is Illuminated
Apr 26
Waning Crescent
Apr 28
New
May 6
First Quarter
May 14
Full
May 21
Last Quarter

Hourly Weather History & Observations

Time (PDT) Temp. Windchill Dew Point Humidity Pressure Visibility Wind Dir Wind Speed Gust Speed Precip Events Conditions
12:53 AM 46.9 °F - 41.0 °F 80% 29.87 in 10.0 mi East 3.5 mph - N/A   Overcast
1:53 AM 46.0 °F 44.8 °F 41.0 °F 83% 29.86 in 10.0 mi East 3.5 mph - N/A   Mostly Cloudy
2:36 AM 46.0 °F 44.8 °F 42.1 °F 86% 29.84 in 10.0 mi Variable 3.5 mph - N/A   Overcast
2:53 AM 46.0 °F 43.9 °F 42.1 °F 86% 29.86 in 10.0 mi East 4.6 mph - N/A   Overcast
3:00 AM 46.0 °F 44.8 °F 42.1 °F 86% 29.85 in 10.0 mi East 3.5 mph - N/A   Overcast
3:34 AM 46.0 °F 44.8 °F 42.1 °F 86% 29.85 in 10.0 mi ESE 3.5 mph - N/A   Overcast
3:49 AM 46.4 °F 45.2 °F 42.8 °F 87% 29.85 in 10.0 mi Variable 3.5 mph - N/A   Overcast
3:53 AM 46.0 °F 44.8 °F 43.0 °F 89% 29.86 in 10.0 mi ESE 3.5 mph - N/A   Overcast
4:53 AM 46.9 °F - 39.9 °F 77% 29.86 in 10.0 mi SSE 6.9 mph - N/A   Overcast
5:53 AM 45.0 °F 41.2 °F 39.0 °F 80% 29.86 in 10.0 mi SSE 6.9 mph - N/A   Mostly Cloudy
6:53 AM 44.1 °F 41.5 °F 39.9 °F 85% 29.86 in 10.0 mi ESE 4.6 mph - N/A   Clear
7:53 AM 46.9 °F - 37.9 °F 71% 29.86 in 10.0 mi SE 6.9 mph - N/A   Clear
8:53 AM 50.0 °F - 39.0 °F 66% 29.85 in 10.0 mi SE 5.8 mph - N/A   Scattered Clouds
9:53 AM 50.0 °F - 37.0 °F 61% 29.84 in 10.0 mi South 8.1 mph - N/A   Partly Cloudy
10:53 AM 53.1 °F - 37.0 °F 55% 29.84 in 10.0 mi Variable 5.8 mph - N/A   Partly Cloudy
11:53 AM 54.0 °F - 34.0 °F 47% 29.83 in 10.0 mi South 6.9 mph - N/A   Clear
12:53 PM 55.0 °F - 32.0 °F 42% 29.81 in 10.0 mi South 6.9 mph - N/A   Clear
1:53 PM 57.0 °F - 33.1 °F 40% 29.79 in 10.0 mi SW 10.4 mph - N/A   Clear
2:53 PM 57.0 °F - 30.9 °F 37% 29.78 in 10.0 mi SSE 8.1 mph - N/A   Partly Cloudy
3:53 PM 60.1 °F - 30.0 °F 32% 29.75 in 10.0 mi South 11.5 mph 17.3 mph N/A   Scattered Clouds
4:53 PM 59.0 °F - 28.9 °F 32% 29.73 in 10.0 mi South 6.9 mph - N/A   Mostly Cloudy
5:53 PM 57.9 °F - 33.1 °F 39% 29.73 in 10.0 mi SW 8.1 mph 18.4 mph N/A   Overcast
6:53 PM 52.0 °F - 41.0 °F 66% 29.73 in 10.0 mi WSW 10.4 mph - 0.00 in Rain Light Rain
7:53 PM 52.0 °F - 42.1 °F 69% 29.70 in 10.0 mi Calm Calm - 0.00 in Rain Light Rain
8:53 PM 48.9 °F - 45.0 °F 86% 29.71 in 4.0 mi SE 3.5 mph - 0.02 in Rain Light Rain
9:53 PM 48.0 °F - 46.0 °F 93% 29.68 in 9.0 mi Calm Calm - 0.04 in Rain Light Rain
10:53 PM 48.0 °F - 45.0 °F 89% 29.68 in 5.0 mi Variable 3.5 mph - 0.08 in Rain Light Rain
11:53 PM 48.0 °F - 45.0 °F 89% 29.67 in 10.0 mi Variable 5.8 mph - 0.01 in Rain Light Rain